Location: Arrodets-la-Barthe
(43.0306°N, 0.2829°E)
Time: 00:01:02
(UTC+00:00)

CBERS-1 - Visible Passes

Search period start: 11 August 2022 00:00
Search period end: 21 August 2022 00:00
Orbit: 769 x 776 km, 98.7° (Epoch: 10 August)

Date Brightness Start Highest point End Pass type
(mag) Time Alt. Az. Time Alt. Az. Time Alt. Az.
11 Aug 6.0 02:07:17 10° NE 02:11:08 21° E 02:14:17 13° SE visible
11 Aug 4.4 03:45:35 10° N 03:50:30 48° WNW 03:54:39 14° SW visible
12 Aug 4.0 03:10:55 10° NNE 03:16:03 83° ESE 03:19:38 20° S visible
13 Aug 5.1 02:36:38 10° NNE 02:41:26 39° E 02:44:37 19° SSE visible
13 Aug 5.2 04:16:07 10° N 04:20:21 27° WNW 04:24:34 10° WSW visible
14 Aug 6.2 02:03:01 10° NE 02:06:39 19° E 02:09:35 12° SE visible
14 Aug 4.2 03:41:06 10° N 03:46:04 53° WNW 03:49:57 16° SW visible
15 Aug 4.1 03:06:28 10° NNE 03:11:36 75° ESE 03:14:56 22° S visible
16 Aug 5.3 02:32:16 10° NNE 02:36:58 36° E 02:39:54 20° SSE visible
16 Aug 5.0 04:11:35 10° N 04:15:57 29° WNW 04:20:16 10° SW visible
17 Aug 6.3 01:58:48 10° NE 02:02:08 17° E 02:04:53 12° SE visible
17 Aug 4.1 03:36:36 10° N 03:41:38 59° WNW 03:45:14 19° SW visible
18 Aug 4.2 03:02:02 10° NNE 03:07:09 68° ESE 03:10:13 24° S visible
19 Aug 5.4 02:27:54 10° NNE 02:32:28 32° E 02:35:11 20° SE visible
19 Aug 4.9 04:07:02 10° N 04:11:32 32° WNW 04:15:33 12° SW visible
20 Aug 6.4 01:54:37 10° NE 01:57:38 16° E 02:00:10 11° ESE visible
20 Aug 4.0 03:32:08 10° N 03:37:11 65° WNW 03:40:31 21° SSW visible
